Ardsley On Hudson, NY

1:29 AM EDT on May 06, 2015 (GMT -0400)
Tarryhill | | Change Station
CLOSE
Current Station
Personal Weather Station
Location: Tarrytown, NY
Elevation: 323 ft
Nearby Weather Stations

Elev 323 ft 41.05 °N, 73.85 °W | Updated 12 seconds ago

Overcast
Overcast
65.2 °F
Feels Like 65.2 °F
N
0.0
Wind Variable Wind from ESE
Gusts 0.0 mph

Today
High -- | Low -- °F
--% Chance of Precip.
Yesterday
High -- | Low -- °F
Precip. -- in
5:47 AM 7:57 PM
Waning Gibbous, 95% visible
Pressure 30.19 in
Visibility 10.0 miles
Clouds Scattered Clouds 10000 ft
Dew Point 52 °F
Humidity 63%
Rainfall 0.00 in
Snow Depth Not available.
UV 0 out of 12
Pollen 10.00 out of 12
Air Quality Not available.
Flu Activity Widespread
METAR KHPN 060456Z 36007KT 10SM SCT100 20/08 A3020 RMK AO2 SLP223 T02000078 402670139 $

More Conditions Fewer Conditions

Pressure 30.19 in
Visibility 10.0 miles
Clouds Scattered Clouds 10000 ft
Dew Point 52 °F
Humidity 63%
Rainfall 0.00 in
Snow Depth Not available.
UV 0 out of 12
Pollen 10.00 out of 12
Air Quality Not available.
Flu Activity Widespread
METAR KHPN 060456Z 36007KT 10SM SCT100 20/08 A3020 RMK AO2 SLP223 T02000078 402670139 $

More Conditions Fewer Conditions

10-Day Weather Forecast

Almanac

Astronomy

May. 06, 2015 Rise Set
Actual Time
Civil Twilight
Nautical Twilight
Astronomical Twilight
Moon
Length of Visible Light
Length of Day
Tomorrow will be .
, % of the Moon is Illuminated

Today's Extremes

State Highs State Lows

Community

WunderPhotos

Upload Photos

1,818,839 photos uploaded!

WunderBlogs® & News

Nearby

Air Quality

  Air Quality AQ Index Pollutant
Not available.

Snow Depth

Station Depth Elevation

Earthquake Activity

City Distance Mag. Time & Date
Minimum magnitude displayed is 2.5.

Coastal Water Temperatures

Place Temperature

Stations

Nearby Weather Stations

Station Location Temp. Windchill Dew Point Humidity Wind Precip. Elev Updated Type